{"data":{"norad_id":67992,"epoch":"2026-09-19T16:47:57.133248Z","epoch_age_seconds":128611,"freshness":"FRESH","line1":"1 67992U 26039G   26262.69996682  .00014417  00000+0  53191-3 0  9994","line2":"2 67992  43.0043  33.3784 0001950 283.3149  76.7485 15.27610047 31376","mean_motion":15.27610047,"eccentricity":0.000195,"inclination_deg":43.0043,"raan_deg":33.3784,"arg_perigee_deg":283.3149,"mean_anomaly_deg":76.7485,"bstar":0.00053191,"rev_number":3137,"period_min":94.264894553944,"perigee_km":481.62121224247,"apogee_km":484.2970397316,"semimajor_km":6861.096125987,"source":"CELESTRAK","updated_at":"2026-09-20T09:00:43.735800Z"}}